Missoula, MT

5:48 AM MDT on April 30, 2017 (GMT -0600)
Missoula International

Weather History for KMSO - February, 2012

Change the Weather History Date:

Wednesday, February 15, 2012

  Actual Average Record
Temperature  
Mean Temperature 30 °F 30 °F  
Max Temperature 35 °F 39 °F 54 °F (1982)
Min Temperature 24 °F 21 °F -20 °F (1936)
Degree Days  
Heating Degree Days 35 35  
Month to date heating degree days 544 545  
Since 1 July heating degree days 4650 4934  
Cooling Degree Days 0 0  
Month to date cooling degree days 0 0  
Year to date cooling degree days 0 0  
Moisture  
Dew Point 22 °F    
Average Humidity 69    
Maximum Humidity 81    
Minimum Humidity 56    
Precipitation  
Precipitation T in 0.03 in 0.90 in (1898)
Month to date precipitation 0.21 0.37  
Year to date precipitation 1.83 1.22  
Snow  
Snow T in - - ()
Month to date snowfall 3.6  
Year to date snowfall 21.4  
Since 1 July snowfall 32.3  
Snow Depth 3.00 in    
Sea Level Pressure  
Sea Level Pressure 30.22 in    
Wind  
Wind Speed 3 mph (NNW)    
Max Wind Speed 15 mph    
Max Gust Speed 20 mph    
Visibility 10 miles    
Events      
T = Trace of Precipitation, MM = Missing Value Source: NWS Daily Summary

Daily Weather History Graph

Daily Weather History Graph

Search for Another Location

Airport or City:

Trip Planner

Search our weather history database for the weather conditions in past years. The results will help you decide how hot, cold, wet, or windy it might be!

Date:

Astronomy

Feb. 15, 2012 Rise Set
Actual Time 7:41 AM MST 6:00 PM MST
Civil Twilight 7:10 AM MST 6:31 PM MST
Nautical Twilight 6:34 AM MST 7:07 PM MST
Astronomical Twilight 5:59 AM MST 7:42 PM MST
Moon 2:51 AM MST (2/15) 11:46 AM MST (2/15)
Length of Visible Light 11h 21m
Length of Day
10h 18m
Last Quarter, 38% of the Moon is Illuminated
Feb 15
Last Quarter
Feb 21
New
Feb 29
First Quarter
Mar 8
Full
Mar 14
Last Quarter

Hourly Weather History & Observations

Time (MST) Temp. Windchill Dew Point Humidity Pressure Visibility Wind Dir Wind Speed Gust Speed Precip Events Conditions
12:53 AM 24.1 °F - 18.0 °F 77% 30.02 in 10.0 mi Calm Calm - N/A   Partly Cloudy
1:53 AM 25.0 °F - 18.0 °F 75% 30.04 in 10.0 mi Calm Calm - N/A   Overcast
2:53 AM 27.0 °F - 19.9 °F 75% 30.06 in 10.0 mi Calm Calm - N/A   Overcast
3:53 AM 26.1 °F 21.9 °F 21.0 °F 81% 30.08 in 10.0 mi West 3.5 mph - N/A   Overcast
4:53 AM 26.1 °F - 21.0 °F 81% 30.10 in 10.0 mi Calm Calm - N/A   Overcast
5:53 AM 27.0 °F - 21.0 °F 78% 30.12 in 10.0 mi Calm Calm - N/A   Overcast
6:53 AM 27.0 °F - 21.0 °F 78% 30.14 in 10.0 mi Calm Calm - N/A   Overcast
7:53 AM 27.0 °F - 21.9 °F 81% 30.16 in 10.0 mi Calm Calm - N/A   Overcast
8:53 AM 28.0 °F - 21.9 °F 78% 30.19 in 10.0 mi Calm Calm - N/A   Overcast
9:53 AM 28.0 °F - 23.0 °F 81% 30.20 in 10.0 mi Calm Calm - 0.00 in   Overcast
10:53 AM 30.9 °F - 21.9 °F 69% 30.22 in 10.0 mi Calm Calm - N/A   Overcast
11:53 AM 30.0 °F 26.5 °F 23.0 °F 75% 30.25 in 10.0 mi WSW 3.5 mph - N/A   Overcast
12:53 PM 35.1 °F 26.4 °F 24.1 °F 64% 30.24 in 10.0 mi NW 12.7 mph - N/A   Overcast
1:53 PM 35.1 °F 27.4 °F 21.9 °F 59% 30.24 in 10.0 mi NNW 10.4 mph - N/A   Overcast
2:53 PM 35.1 °F 28.6 °F 24.1 °F 64% 30.25 in 10.0 mi North 8.1 mph - N/A   Overcast
3:53 PM 34.0 °F 26.0 °F 23.0 °F 64% 30.26 in 10.0 mi North 10.4 mph - N/A   Overcast
4:53 PM 33.1 °F 24.9 °F 23.0 °F 66% 30.28 in 10.0 mi North 10.4 mph - N/A   Overcast
5:53 PM 33.1 °F 26.1 °F 21.9 °F 64% 30.30 in 10.0 mi North 8.1 mph - N/A   Overcast
6:53 PM 33.1 °F 27.7 °F 21.9 °F 64% 30.31 in 10.0 mi North 5.8 mph - N/A   Overcast
7:53 PM 30.9 °F - 21.0 °F 67% 30.32 in 10.0 mi Calm Calm - N/A   Overcast
8:53 PM 30.0 °F 25.2 °F 21.0 °F 69% 30.34 in 10.0 mi WNW 4.6 mph - N/A   Overcast
9:53 PM 30.0 °F - 21.0 °F 69% 30.35 in 10.0 mi Calm Calm - N/A   Overcast
10:53 PM 28.0 °F 24.2 °F 21.0 °F 75% 30.37 in 10.0 mi NNW 3.5 mph - N/A   Overcast
11:53 PM 28.0 °F - 21.0 °F 75% 30.38 in 10.0 mi Calm Calm - N/A   Overcast